Beverly, MA

10:07 AM EDT on April 25, 2017 (GMT -0400)
Beverly Municipal

Weather History for KBVY - January, 2012

Change the Weather History Date:

Saturday, January 21, 2012

  Actual Average Record
Temperature  
Mean Temperature 18 °F -  
Max Temperature 21 °F 28 °F 54 °F (2017)
Min Temperature 15 °F 13 °F 19 °F (2015)
Degree Days  
Heating Degree Days 47    
Moisture  
Dew Point 11 °F    
Average Humidity 74    
Maximum Humidity 86    
Minimum Humidity 48    
Precipitation  
Precipitation 0.11 in - - ()
Sea Level Pressure  
Sea Level Pressure 30.22 in    
Wind  
Wind Speed 6 mph (North)    
Max Wind Speed 13 mph    
Max Gust Speed 21 mph    
Visibility 6 miles    
Events Fog , Snow    
Averages and records for this station are not official NWS values.
T = Trace of Precipitation, MM = Missing Value Source: NWS Daily Summary

Daily Weather History Graph

Daily Weather History Graph

Search for Another Location

Airport or City:

Trip Planner

Search our weather history database for the weather conditions in past years. The results will help you decide how hot, cold, wet, or windy it might be!

Date:

Astronomy

Jan. 21, 2012 Rise Set
Actual Time 7:07 AM EST 4:42 PM EST
Civil Twilight 6:36 AM EST 5:13 PM EST
Nautical Twilight 6:02 AM EST 5:47 PM EST
Astronomical Twilight 5:29 AM EST 6:21 PM EST
Moon 5:37 AM EST (1/21) 3:14 PM EST (1/21)
Length of Visible Light 10h 36m
Length of Day
9h 34m
Waning Crescent, 3% of the Moon is Illuminated
Jan 21
Waning Crescent
Jan 23
New
Jan 30
First Quarter
Feb 7
Full
Feb 14
Last Quarter

Hourly Weather History & Observations

Time (EST) Temp. Windchill Dew Point Humidity Pressure Visibility Wind Dir Wind Speed Gust Speed Precip Events Conditions
12:53 AM 16.0 °F 10.4 °F 1.0 °F 52% 30.30 in 10.0 mi North 3.5 mph - N/A   Clear
1:53 AM 18.0 °F - 3.0 °F 52% 30.28 in 10.0 mi Calm Calm - N/A   Mostly Cloudy
3:53 AM 18.0 °F 8.7 °F 1.9 °F 50% 30.27 in 10.0 mi NNW 6.9 mph - N/A   Overcast
4:53 AM 18.0 °F - 1.0 °F 48% 30.27 in 10.0 mi Calm Calm - N/A   Overcast
5:53 AM 18.0 °F 12.7 °F 1.9 °F 50% 30.22 in 10.0 mi North 3.5 mph - N/A   Overcast
6:53 AM 18.0 °F - 1.0 °F 48% 30.23 in 10.0 mi Calm Calm - N/A   Overcast
7:16 AM 17.6 °F 10.7 °F 6.8 °F 63% 30.24 in 3.0 mi NNW 4.6 mph - 0.00 in Snow Light Snow
7:23 AM 17.6 °F 10.7 °F 6.8 °F 63% 30.24 in 2.0 mi NNW 4.6 mph - 0.00 in Snow Light Snow
7:33 AM 15.8 °F 8.6 °F 8.6 °F 73% 30.24 in 1.5 mi NNW 4.6 mph - 0.00 in Snow Light Snow
7:49 AM 15.8 °F 8.6 °F 10.4 °F 79% 30.25 in 0.5 mi North 4.6 mph - 0.00 in Snow Snow
7:53 AM 15.8 °F 10.2 °F 10.4 °F 79% 30.25 in 0.5 mi North 3.5 mph - N/A Snow Snow
8:53 AM 16.0 °F 5.3 °F 12.0 °F 84% 30.25 in 0.5 mi NNW 8.1 mph - 0.03 in Fog , Snow Snow
9:49 AM 15.8 °F 7.2 °F 12.2 °F 86% 30.23 in 1.0 mi North 5.8 mph - 0.02 in Snow Light Snow
9:53 AM 17.1 °F 8.7 °F 12.0 °F 81% 30.23 in 0.8 mi NNW 5.8 mph - 0.02 in Snow Light Snow
10:10 AM 17.6 °F 9.3 °F 12.2 °F 79% 30.22 in 1.0 mi North 5.8 mph - 0.01 in Snow Light Snow
10:53 AM 18.0 °F 7.7 °F 12.9 °F 81% 30.19 in 1.0 mi North 8.1 mph - 0.02 in Snow Light Snow
11:32 AM 17.6 °F 7.3 °F 14.0 °F 86% 30.17 in 0.8 mi North 8.1 mph - 0.01 in Snow Light Snow
11:53 AM 19.0 °F 9.0 °F 14.0 °F 81% 30.16 in 1.0 mi North 8.1 mph - 0.02 in Snow Light Snow
12:53 PM 19.9 °F 10.1 °F 15.1 °F 81% 30.14 in 1.0 mi North 8.1 mph - 0.01 in Snow Light Snow
1:14 PM 19.4 °F 7.9 °F 15.8 °F 86% 30.13 in 0.8 mi North 10.4 mph - 0.00 in Snow Light Snow
1:23 PM 19.4 °F 9.5 °F 15.8 °F 86% 30.13 in 1.0 mi North 8.1 mph - 0.00 in Snow Light Snow
1:53 PM 19.9 °F 7.9 °F 15.1 °F 81% 30.12 in 1.2 mi North 11.5 mph - 0.01 in Snow Light Snow
2:53 PM 19.9 °F 7.3 °F 15.1 °F 81% 30.13 in 1.2 mi North 12.7 mph - 0.00 in Snow Light Snow
3:13 PM 19.4 °F 7.2 °F 15.8 °F 86% 30.13 in 2.0 mi North 11.5 mph - 0.00 in Snow Light Snow
3:22 PM 19.4 °F 7.2 °F 15.8 °F 86% 30.13 in 5.0 mi North 11.5 mph - 0.00 in Snow Light Snow
3:34 PM 19.4 °F 7.9 °F 15.8 °F 86% 30.14 in 10.0 mi North 10.4 mph 20.7 mph 0.00 in   Overcast
3:53 PM 19.9 °F 8.6 °F 16.0 °F 85% 30.14 in 10.0 mi North 10.4 mph - 0.00 in   Overcast
4:53 PM 19.9 °F 8.6 °F 15.1 °F 81% 30.16 in 10.0 mi North 10.4 mph - N/A   Overcast
5:02 PM 19.4 °F 7.9 °F 15.8 °F 86% 30.16 in 10.0 mi North 10.4 mph - N/A   Overcast
5:53 PM 19.9 °F 8.6 °F 16.0 °F 85% 30.17 in 10.0 mi North 10.4 mph - N/A   Overcast
6:53 PM 21.0 °F 10.6 °F 15.1 °F 78% 30.21 in 10.0 mi North 9.2 mph - N/A   Overcast
7:31 PM 19.4 °F 7.2 °F 14.0 °F 80% 30.24 in 10.0 mi North 11.5 mph - N/A   Overcast
7:53 PM 19.0 °F 6.8 °F 12.9 °F 77% 30.25 in 10.0 mi North 11.5 mph - N/A   Overcast
8:24 PM 19.4 °F 7.9 °F 12.2 °F 74% 30.26 in 10.0 mi North 10.4 mph - N/A   Overcast
8:53 PM 18.0 °F 5.4 °F 10.9 °F 74% 30.27 in 10.0 mi North 11.5 mph - N/A   Overcast
9:13 PM 17.6 °F 6.4 °F 10.4 °F 73% 30.28 in 10.0 mi North 9.2 mph - N/A   Scattered Clouds
9:53 PM 16.0 °F 3.6 °F 7.0 °F 68% 30.29 in 10.0 mi North 10.4 mph - N/A   Clear
10:31 PM 15.8 °F 3.4 °F 6.8 °F 68% 30.31 in 10.0 mi North 10.4 mph - N/A   Mostly Cloudy
10:53 PM 15.1 °F 1.1 °F 7.0 °F 70% 30.32 in 10.0 mi NNW 12.7 mph - N/A   Overcast
11:53 PM 15.1 °F 2.5 °F 7.0 °F 70% 30.35 in 10.0 mi North 10.4 mph - N/A   Overcast